Miscellaneous Local Product
Issued by NWS North Platte, NE

Home | Current Version | Previous Version | Text Only | Print | Product List | Glossary On
Versions: 1 2 3 4 5 6 7 8 9 10 11 12 13 14 15 16 17 18 19 20 21 22 23 24 25 26 27 28 29 30 31 32 33 34 35 36 37 38 39 40 41 42 43 44 45 46 47 48 49 50
000
AXUS43 KLBF 302310
MISLBF


WESTERN AND NORTH CENTRAL NEBRASKA HOURLY WEATHER ROUNDUP
NATIONAL WEATHER SERVICE NORTH PLATTE NE
600 PM CDT SAT JUL 30 2016

NOTE: "FAIR" INDICATES FEW OR NO CLOUDS BELOW 12,000 FEET WITH NO
SIGNIFICANT WEATHER AND/OR OBSTRUCTIONS TO VISIBILITY.

NOTE: STATIONS NOT REPORTING VARIABLES SUCH AS SKY/WEATHER OR
PRESSURE ARE PROVIDED BY RAWS AND APRS NETWORKS AND ARE NOT UNDER
NATIONAL WEATHER SERVICE QUALITY CONTROL.

...OBSERVATIONS IN AND NEAR THE EASTERN PANHANDLE OF NEBRASKA...

CITY           SKY/WX    TMP DP  RH WIND       PRES   REMARKS
PINE RIDGE     SUNNY     90  58  33 S17G24    29.85F
CHADRON        SUNNY     92  55  28 S16       29.84F HX  90
ALLIANCE       SUNNY     86  60  41 S15       29.93F
SIDNEY         SUNNY     86  57  37 S17       29.98F
CRESCENT LAKE    N/A     85  62  45 S7G15       N/A
$$

...OBSERVATIONS IN NORTHERN NEBRASKA AND FAR SOUTHERN SOUTH DAKOTA...

CITY           SKY/WX    TMP DP  RH WIND       PRES   REMARKS
WINNER         FAIR      88  64  44 S15       29.87F
VALENTINE      MOSUNNY   86  59  39 S12       29.90S
THEDFORD       SUNNY     85  65  50 S13G21    29.93F
AINSWORTH      MOSUNNY   84  65  52 S13       29.91F
O`NEILL        MOSUNNY   82  65  56 SE14G20   29.93F
ORD            MOSUNNY   82  68  62 SE12G17   29.92F
BROKEN BOW     MOSUNNY   81  69  67 S8        29.93F
VALENTINE NWR    N/A     87  63  44 S10         N/A
BUTTE            N/A     81  68  64 E13G22      N/A
HALSEY           N/A     84  64  50 S8          N/A
EWING            N/A     80  67  65 S7          N/A
$$

...OBSERVATIONS IN SOUTHWEST NEBRASKA AND FAR NORTHEAST COLORADO...

CITY           SKY/WX    TMP DP  RH WIND       PRES   REMARKS
WRAY           FAIR      90  55  31 SE14G21   29.93F
HOLYOKE        FAIR      88  59  37 SE12      29.93F
IMPERIAL       SUNNY     89  57  33 S14       29.91F
OGALLALA       SUNNY     89  58  34 SE12      29.92F
NORTH PLATTE   MOSUNNY   85  68  56 SE8       29.92F
MCCOOK         SUNNY     91  62  37 SE14      29.90S HX  91
LEXINGTON      SUNNY     85  67  55 SE9       29.93S
STAPLETON        N/A     86  71  60 E3          N/A  HX  91
GOTHENBURG       N/A     84  65  52 SE9         N/A
CALLAWAY         N/A     83  73  70 S12         N/A
$$

...OBSERVATIONS IN CENTRAL LINCOLN COUNTY AREA...

CITY           SKY/WX    TMP DP  RH WIND       PRES   REMARKS
N.P. AIRPORT   MOSUNNY   85  68  56 SE8       29.92F
N.P. DOWNTOWN    N/A     86  69  56 SE3G13      N/A  HX  90
N.P. HILLCREST   N/A     84  67  57 SE12        N/A
$$

...SOME OBSERVATIONS FROM AROUND THE REGION...

CITY           SKY/WX    TMP DP  RH WIND       PRES   REMARKS
DENVER         MOSUNNY   93  42  17 NE18G24   29.98F
LARAMIE        CLOUDY    83  28  13 W17G28    30.12S
CHEYENNE       CLOUDY    85  46  25 S9        30.04F
SCOTTSBLUFF    SUNNY     89  60  37 E18G28    29.89F
RAPID CITY     CLOUDY    87  55  33 SE13      29.82S THUNDER
BISMARCK       SUNNY     86  63  45 SE13      29.81F
PIERRE         MOSUNNY   88  59  37 SE16      29.81F
SIOUX FALLS    MOSUNNY   79  57  46 SE8       29.95F
OMAHA          MOSUNNY   82  63  52 S9        29.95F
GRAND ISLAND   MOSUNNY   81  69  67 S10       29.94F
KANSAS CITY    MOSUNNY   84  65  52 NE6       29.95F
WICHITA        MOSUNNY   88  67  49 SE9       29.91F HX  91
OKLAHOMA CITY  MOSUNNY   91  74  57 SE7       29.91F HX 100
DALLAS         MOSUNNY   98  62  30 S15       29.89F HX  99
AMARILLO       SUNNY     91  58  32 S17       29.99F HX  90
DODGE CITY     SUNNY     92  63  38 SE15      29.90F HX  93
HAYS           MOSUNNY   90  64  43 SE13      29.90F HX  91
GOODLAND       SUNNY     90  60  36 S17       29.92F
$$




USA.gov is the U.S. government's official web portal to all federal, state and local government web resources and services.